Location: Chevoux
(46.3801°N, 4.9476°E)
Time: 20:23:29
(UTC+00:00)

ISS - Pass Details

Date: 26 April 2021
Orbit: 418 x 421 km, 51.6° (Epoch: 07 May)

Event Time Altitude Azimuth Distance (km) Brightness Sun altitude
Exits shadow 03:46:27 - 202° (SSW) 1,808 -1.0 -8.3°
Reaches altitude 10° 03:47:20 10° 195° (SSW) 1,496 -1.4 -8.1°
Maximum altitude 03:50:06 24° 139° (SE) 917 -1.9 -7.7°
Drops below altitude 10° 03:52:53 10° 83° (E) 1,506 0.4 -7.3°
Sets 03:55:14 0° 69° (ENE) 2,375 2.4 -6.9°
